Regional Weather Roundup
Issued by NWS Charleston, SC

Current Version | Previous Version | Graphics & Text | Print | Product List | Glossary On
Versions: 1 2 3 4 5 6 7 8 9 10 11 12 13 14 15 16 17 18 19 20 21 22 23 24 25 26 27 28 29 30 31 32 33 34 35 36 37 38 39 40 41 42 43 44 45 46 47 48 49 50
000 ASUS42 KCHS 211010 RWRCHS REGIONAL WEATHER ROUNDUP NATIONAL WEATHER SERVICE CHARLESTON SC 600 AM EDT TUE OCT 21 2014 NOTE: "FAIR" INDICATES FEW OR NO CLOUDS BELOW 12,000 FEET WITH NO SIGNIFICANT WEATHER AND/OR OBSTRUCTIONS TO VISIBILITY. NOT ALL STATIONS ARE QUALITY CONTROLLED BY THE NATIONAL WEATHER SERVICE. USE DATA WITH CAUTION...ESPECIALLY DEWPOINT OBSERVATIONS. SCZ027-030-031-034>040-042>050-211100- ...SOUTH CAROLINA... CITY SKY/WX TMP DP RH WIND PRES REMARKS N CHARLESTON PTCLDY 63 59 87 CALM 29.96R WATERFRONT PRK N/A 68 N/A N/A CALM N/A FORT JOHNSON NOT AVBL JOHNS ISLAND PTSUNNY 64 64 100 CALM 29.96S PINOPOLIS N/A 66 61 82 W6 29.87S MONCKS CORNER FAIR 59 59 100 CALM 29.95S SUMMERVILLE FAIR 55 55 100 CALM 29.97R BEAUFORT MCAS PTCLDY 63 62 97 NW3 29.96R BEAUFORT ARPT FAIR 64 64 100 CALM 29.95S HILTON HEAD IS NOT AVBL GEORGETOWN NOT AVBL WALTERBORO SUNNY 57 N/A N/A CALM 29.97R ORANGEBURG CLEAR 54 51 90 CALM 29.96R BARNWELL FAIR 52 50 93 CALM 29.97S AIKEN FAIR 48 48 100 CALM 29.99S MANNING FAIR 54 N/A N/A CALM 29.96R KINGSTREE NOT AVBL COLUMBIA CLEAR 51 47 86 W3 29.95S SUMTER CLEAR 54 51 90 VRB2 29.94R FLORENCE CLEAR 52 51 97 W5 29.95R FOG MYRTLE BEACH MOCLDY 59 55 88 NW7 29.94S N MYRTLE BEACH PTCLDY 58 56 93 CALM 29.94R $$ GAZ063-065-086>088-099>101-113>116-118-119-134-136>141-150-211100- ...GEORGIA... CITY SKY/WX TMP DP RH WIND PRES REMARKS SAVANNAH ARPT PTCLDY 64 61 90 CALM 29.96S FOG HUNTER AAF PTCLDY 64 63 96 N2 29.94S FORT STEWART PTCLDY 62 60 94 CALM 29.95S STATESBORO NOT AVBL SYLVANIA SUNNY 56 56 97 CALM 29.98R CLAXTON FAIR 59 59 100 CALM 29.97S FOG THOMSON CLEAR 49 49 100 CALM 30.01S AUGUSTA-BUSH CLEAR 45 44 97 CALM 29.97S AUGUSTA-DANIEL CLEAR 56 51 84 CALM 29.97S SWAINSBORO FAIR 52 52 100 MISG 29.98S FOG VIDALIA PTCLDY 57 55 94 CALM 29.98R ALMA CLEAR 58 56 93 CALM 29.96S WAYCROSS PTCLDY 64 62 95 CALM 29.96S JESUP FAIR 63 63 100 CALM 29.96S BRUNSWICK PTCLDY 63 61 94 CALM 29.95S VSB 1/2 SAINT SIMONS CLEAR 63 63 100 NW3 29.95R $$ SCZ027-028-034-036>038-045-046-048>050-GAZ119-141-211100- ...LAKE AND SUPPLEMENTAL COASTAL OBSERVATIONS... STATION/POSITION TIME TEMP WIND PRES WAVE SWELL AIR SEA DIR/SP/G HT/PER HT/PER/DIR (UTC) (F) (DEG/KT/KT) (MB) (FT/S) (FT/S/D) UPR LAKE MARION NOT AVBL WINYAH BAY 0900 59 310/ 1 1013.0S LAKE MURRAY 0900 60 270/ 4/ 6 1013.9R ACE BASIN NERRS 0900 65 CALM 1014.0S FORT PULASKI 1000 66 310/ 4/ 5 1014.6R SAPELO ISLAND NOT AVBL $$ ANZ835-935-AMZ111-154-330-350-352-354-374-450-454-472-211100- ...C-MAN AND BUOY OBSERVATIONS... STATION/POSITION TIME TEMP WIND PRES WAVE SWELL AIR SEA DIR/SP/G HT/PER HT/PER/DIR (UTC) (F) (DEG/KT/KT) (MB) (FT/S) (FT/S/D) FOLLY BEACH CMAN 0900 67 290/ 3/ 3 1014.6R BUOY 41004 1000 74 79 200/ 6/ 8 1013.5S 2/ 9 2/ 9 BUOY 41008 1000 72 76 310/ 10/ 14 1013.9R 2/10 2/ 90/10 5E ST. MARYS GA 1000 77 N/A 2/ 8 FRYING PAN BUOY 1000 73 75 280/ 10/ 12 1014.4R 2/ 9 2/110/ 9 BUOY 41025 1000 65 320/ 4/ 8 1013.3F 4/ 4 3/170/ 4 CAPE LOOKOUT NC 0900 67 300/ 9/ 10 1013.3R BUOY 41002 0950 70 80 170/ 10/ 14 1014.9F 4/ 8 3/ 80/ 8 BUOY 41010 1000 80 80 250/ 8/ 10 1014.1R 3/ 8 2/ 70/ 8 BUOY 41012 NOT AVBL ST AUGUSTINE FL 1000 68 290/ 5/ 7 1014.4R CAPERS NEARSHORE 0900 70 360/ 4/ 6 N/A FRIPP NEARSHORE NOT AVBL $$

USA.gov is the U.S. government's official web portal to all federal, state and local government web resources and services.